Regional Weather Roundup
Issued by NWS Goodland, KS

Home | Current Version | Previous Version | Text Only | Print | Product List | Glossary On
Versions: 1 2 3 4 5 6 7 8 9 10 11 12 13 14 15 16 17 18 19 20 21 22 23 24 25 26 27 28 29 30 31 32 33 34 35 36 37 38 39 40 41 42 43 44 45 46 47 48 49 50
000
ASUS43 KGLD 021108
RWRGLD

GOODLAND FORECAST AREA HOURLY WEATHER ROUNDUP
NATIONAL WEATHER SERVICE GOODLAND KS
500 AM MDT MON MAY 02 2016

...OFFICIAL OBSERVATIONS...

CITY           SKY/WX    TMP DP  RH WIND       PRES   REMARKS
GOODLAND KS    CLEAR     30  26  85 W8        30.22S
HILL CITY KS   CLOUDY    42  39  89 W3        30.20S
IMPERIAL NEB   CLEAR     33  28  81 NW7       30.22F
MCCOOK NEB     MOCLDY    33  31  92 W6        30.21F
AKRON CO       CLEAR     30  25  81 W13       30.23S WCI  20
BURLINGTON CO  CLEAR     29  24  82 W8        30.23F
LIMON CO       CLOUDY    23  21  92 W9        30.25S
$$

...UNOFFICIAL OBSERVATIONS...

CITY           SKY/WX    TMP DP  RH WIND       PRES   REMARKS
COLBY KS       CLOUDY    37  37 100 NW9       30.23S
LENORA KS        N/A     37  32  82 MISG        N/A
NORTON KS      CLEAR     36  30  80 W12       30.19S
SHARON SPRINGS   N/A     30  28  90 NW8         N/A
TRIBUNE KS     CLEAR     34  30  86 NW10      30.25
KIT CARSON CO    N/A     29  26  88 MISG        N/A
YUMA CO          N/A     28  26  90 CALM        N/A
$$




USA.gov is the U.S. government's official web portal to all federal, state and local government web resources and services.